Overview Statistics Trail Chart Weather Telemetry Raw packets
 

This is the latest recevied weather packets stored in our database for station/object KI5RAB. If no packets are shown the sender has not sent any weather packets the latest 10 day(s).

<< 14 15 16 17 18 19 20 >>
Time Temp. Humidity Pressure Rain* Wind** Luminosity Snow
1788564618 31.67° C 60% 1014.8 hPa 0 mm - 73 W/m² -
1788564315 32.22° C 57% 1014.7 hPa 0 mm - 48 W/m² -
1788564011 32.78° C 56% 1014.8 hPa 0 mm - 66 W/m² -
1788563707 32.78° C 56% 1014.7 hPa 0 mm - 140 W/m² -
1788563401 32.22° C 59% 1014.8 hPa 0 mm - 123 W/m² -
1788563099 32.22° C 58% 1014.8 hPa 0 mm - 87 W/m² -
1788562794 32.22° C 59% 1014.8 hPa 0 mm - 73 W/m² -
1788562492 31.67° C 59% 1014.9 hPa 0 mm - 150 W/m² -
1788562187 32.22° C 60% 1014.8 hPa 0 mm - 145 W/m² -
1788561883 32.78° C 59% 1014.8 hPa 0 mm - 145 W/m² -
1788561583 32.22° C 60% 1015 hPa 0 mm - 131 W/m² -
1788561282 32.22° C 60% 1015.1 hPa 0 mm - 152 W/m² -
1788560977 32.78° C 60% 1015 hPa 0 mm - 222 W/m² -
1788560672 32.78° C 59% 1015.2 hPa 0 mm - 168 W/m² -
1788560367 32.78° C 61% 1015.5 hPa 0 mm - 308 W/m² -
1788560061 31.67° C 65% 1015.4 hPa 0 mm - 230 W/m² -
1788559757 31.67° C 64% 1015.2 hPa 0 mm - 170 W/m² -
1788559456 31.11° C 66% 1015.5 hPa 0 mm - 165 W/m² -
1788559152 31.11° C 65% 1015.5 hPa 0 mm - 155 W/m² -
1788558847 31.11° C 66% 1015.6 hPa 0 mm - 153 W/m² -
1788558543 31.11° C 67% 1015.7 hPa 0 mm - 153 W/m² -
1788558238 31.11° C 69% 1015.7 hPa 0 mm - 152 W/m² -
1788557936 31.11° C 68% 1015.9 hPa 0 mm - 169 W/m² -
1788557631 31.11° C 66% 1015.9 hPa 0 mm - 182 W/m² -
1788557327 31.11° C 67% 1016 hPa 0 mm - 181 W/m² -

* Rain latest hour (hover to see other rain measurements)
** Current wind speed in m/s (hover to see current wind gust speed)